Location: Eferding
(48.3167°N, 14.0167°E)
Time: 01:59:16
(UTC+00:00)

CZ-4 R/B - Pass Details

Date: 12 November 2019
Orbit: 529 x 601 km, 97.8° (Epoch: 08 December)

Event Time Altitude Azimuth Distance (km) Brightness Sun altitude
Rises 18:29:03 0° 208° (SSW) 2,829 5.2 -29.9°
Reaches altitude 10° 18:31:57 10° 230° (SW) 1,924 4.5 -30.3°
Maximum altitude 18:34:35 16° 269° (W) 1,556 4.3 -30.8°
Drops below altitude 10° 18:37:12 10° 309° (NW) 1,914 4.7 -31.2°
Sets 18:40:05 0° 331° (NNW) 2,805 5.4 -31.7°
